Толлхаус

США     37°00′50″N   119°22′04″W
темп.,
°C
ветер,
м/с
пор.,
м/с
влажн.,
%
обл.,
%
осадки,
мм/ч
давл.,
гПа
погр.,
м
16 октября, сб
сб1623:00+14св32260 0.0 102123
02:00+13св32220 0.0 102121
05:00+13св32210 0.0 102022
08:00+15св22190 0.0 101927
11:00+22юз31130 0.0 1017799
14:00+23юз32111 0.0 10151139
17:00+21юз21130 0.0 1015709
20:00+15св32200 0.0 101631
17 октября, вс
вс1723:00+14св32183 0.0 101731
02:00+14св32185 0.0 101629
05:00+12св42195 0.0 101435
08:00+14всв321875 0.0 101436
11:00+19ююз351398 0.0 10141200
14:00+20ююз461384 0.0 10121834
17:00+17ююз56185 0.0 10111734
20:00+10в22350 0.0 101315
18 октября, пн
пн1823:00+7в22475 0.0 101448
02:00+6юв1258100 0.1 101687
05:00+5ююз0285100 1.3 1016296
08:00+5ссв128899 2.6 1017258
11:00+10юз225732 2.8 10151222
14:00+11юз334561 0.0 10141461
17:00+11зюз22416 0.0 10131118
20:00+5св22621 0.0 101615
19 октября, вт
вт1923:00+5св32631 0.0 101727
02:00+5св22611 0.0 101719
05:00+5св22530 0.0 101717
08:00+7св21370 0.0 101721
11:00+14юз32280 0.0 1016628
14:00+17юз32230 0.0 1015934
17:00+15юз2126100 0.0 1014574
20:00+9св32365 0.0 101721
20 октября, ср
ср2023:00+10св322988 0.0 101719
02:00+10св322780 0.0 101818
05:00+10св322797 0.0 101922
08:00+11св2223100 0.0 101920
11:00+17юз2120100 0.0 1019484
14:00+18юз212199 0.0 1018802
17:00+17зюз212518 0.0 1018438
20:00+12св32345 0.0 102018